Weather History for Caumont Avignon, France

Change the Weather History Date:

Sunday, November 24, 2013

  Actual Average Record
Temperature  
Mean Temperature 47 °F -  
Max Temperature 50 °F - - ()
Min Temperature 44 °F - - ()
Degree Days  
Heating Degree Days 18    
Moisture  
Dew Point 37 °F    
Average Humidity 69    
Maximum Humidity 76    
Minimum Humidity 62    
Precipitation  
Precipitation 0.00 in - - ()
Sea Level Pressure  
Sea Level Pressure 29.79 in    
Wind  
Wind Speed 24 mph ()    
Max Wind Speed 31 mph    
Max Gust Speed 46 mph    
Visibility 6.2 miles    
Events      
T = Trace of Precipitation, MM = Missing Value Source: Averaged Metar Reports

Daily Weather History Graph

Daily Weather History Graph

Search for Another Location

Airport:

Trip Planner

Search our weather history database for the weather conditions in past years. The results will help you decide how hot, cold, wet, or windy it might be!

Date:

Astronomy

Nov. 24, 2013 Rise Set
Actual Time 7:46 AM CET 5:07 PM CET
Civil Twilight 7:14 AM CET 5:39 PM CET
Nautical Twilight 6:39 AM CET 6:14 PM CET
Astronomical Twilight 6:04 AM CET 6:49 PM CET
Moon 11:24 PM CET (11/24) 12:21 PM CET (11/24)
Length of Visible Light 10h 24m
Length of Day
9h 20m
Waning Gibbous, 63% of the Moon is Illuminated
Nov 24
Waning Gibbous
Nov 25
Last Quarter
Dec 3
New
Dec 9
First Quarter
Dec 17
Full

Hourly Weather History & Observations

Time (CET) Temp. Windchill Dew Point Humidity Pressure Visibility Wind Dir Wind Speed Gust Speed Precip Events Conditions
12:00 AM 44.6 °F 35.3 °F 37.4 °F 76% 29.68 in 6.2 mi North 26.5 mph 38.0 mph N/A   Unknown
12:30 AM 44.6 °F 35.1 °F 37.4 °F 76% 29.65 in 6.2 mi North 27.6 mph 40.3 mph N/A   Unknown
1:00 AM 44.6 °F 35.5 °F 37.4 °F 76% 29.68 in 6.2 mi North 25.3 mph 36.8 mph N/A   Unknown
1:30 AM 44.6 °F 35.1 °F 37.4 °F 76% 29.65 in 6.2 mi North 27.6 mph 40.3 mph N/A   Unknown
2:00 AM 44.6 °F 35.5 °F 37.4 °F 76% 29.65 in 6.2 mi North 25.3 mph 41.4 mph N/A   Unknown
2:30 AM 44.6 °F 35.9 °F 37.4 °F 76% 29.68 in 6.2 mi North 23.0 mph 35.7 mph N/A   Unknown
3:00 AM 44.6 °F 35.7 °F 37.4 °F 76% 29.68 in 6.2 mi North 24.2 mph 40.3 mph N/A   Unknown
3:30 AM 44.6 °F 35.9 °F 37.4 °F 76% 29.71 in 6.2 mi North 23.0 mph - N/A   Unknown
4:00 AM 44.6 °F 35.1 °F 37.4 °F 76% 29.68 in 6.2 mi North 27.6 mph 42.6 mph N/A   Unknown
4:30 AM 44.6 °F 35.9 °F 35.6 °F 71% 29.68 in 6.2 mi North 23.0 mph - N/A   Unknown
5:00 AM 44.6 °F 35.5 °F 35.6 °F 71% 29.71 in 6.2 mi North 25.3 mph 39.1 mph N/A   Unknown
5:30 AM 44.6 °F 35.3 °F 37.4 °F 76% 29.71 in 6.2 mi North 26.5 mph 42.6 mph N/A   Unknown
6:00 AM 44.6 °F 35.7 °F 37.4 °F 76% 29.71 in 6.2 mi North 24.2 mph - N/A   Unknown
6:30 AM 44.6 °F 35.7 °F 37.4 °F 76% 29.71 in 6.2 mi North 24.2 mph 41.4 mph N/A   Unknown
7:00 AM 44.6 °F 36.1 °F 37.4 °F 76% 29.74 in 6.2 mi North 21.9 mph 35.7 mph N/A   Unknown
7:30 AM 44.6 °F 35.7 °F 37.4 °F 76% 29.74 in 6.2 mi North 24.2 mph 39.1 mph N/A   Unknown
8:00 AM 44.6 °F 35.5 °F 37.4 °F 76% 29.74 in 6.2 mi North 25.3 mph - N/A   Unknown
8:30 AM 44.6 °F 35.9 °F 37.4 °F 76% 29.74 in 6.2 mi North 23.0 mph - N/A   Unknown
9:00 AM 44.6 °F 35.9 °F 37.4 °F 76% 29.77 in 6.2 mi North 23.0 mph - N/A   Unknown
9:30 AM 46.4 °F 37.7 °F 37.4 °F 71% 29.77 in 6.2 mi North 26.5 mph 40.3 mph N/A   Unknown
10:00 AM 46.4 °F 37.5 °F 37.4 °F 71% 29.77 in 6.2 mi North 27.6 mph 41.4 mph N/A   Unknown
10:30 AM 48.2 °F - 37.4 °F 66% 29.77 in 6.2 mi North 27.6 mph 39.1 mph N/A   Unknown
11:00 AM 48.2 °F - 37.4 °F 66% 29.80 in 6.2 mi North 31.1 mph 43.7 mph N/A   Unknown
11:30 AM 50.0 °F - 37.4 °F 62% 29.80 in 6.2 mi North 28.8 mph 42.6 mph N/A   Unknown
12:00 PM 50.0 °F - 37.4 °F 62% 29.80 in 6.2 mi North 28.8 mph 41.4 mph N/A   Unknown
12:30 PM 50.0 °F - 37.4 °F 62% 29.80 in 6.2 mi North 29.9 mph 43.7 mph N/A   Unknown
1:00 PM 50.0 °F - 37.4 °F 62% 29.80 in 6.2 mi North 27.6 mph 39.1 mph N/A   Unknown
1:30 PM 50.0 °F - 37.4 °F 62% 29.80 in 6.2 mi North 28.8 mph 43.7 mph N/A   Unknown
2:00 PM 50.0 °F - 37.4 °F 62% 29.80 in 6.2 mi North 28.8 mph - N/A   Unknown
2:30 PM 50.0 °F - 37.4 °F 62% 29.80 in 6.2 mi North 29.9 mph 46.0 mph N/A   Unknown
3:00 PM 50.0 °F - 37.4 °F 62% 29.80 in 6.2 mi North 26.5 mph 39.1 mph N/A   Unknown
3:30 PM 50.0 °F - 37.4 °F 62% 29.83 in 6.2 mi North 28.8 mph 42.6 mph N/A   Unknown
4:00 PM 50.0 °F - 37.4 °F 62% 29.83 in 6.2 mi North 28.8 mph 42.6 mph N/A   Unknown
4:30 PM 48.2 °F - 37.4 °F 66% 29.83 in 6.2 mi North 25.3 mph 42.6 mph N/A   Unknown
5:00 PM 48.2 °F - 37.4 °F 66% 29.83 in 6.2 mi North 25.3 mph - N/A   Unknown
5:30 PM 48.2 °F - 37.4 °F 66% 29.83 in 6.2 mi North 24.2 mph 38.0 mph N/A   Unknown
6:00 PM 48.2 °F - 37.4 °F 66% 29.86 in 6.2 mi North 27.6 mph 40.3 mph N/A   Unknown
6:30 PM 48.2 °F - 37.4 °F 66% 29.86 in 6.2 mi North 27.6 mph - N/A   Unknown
7:00 PM 48.2 °F - 37.4 °F 66% 29.86 in 6.2 mi North 27.6 mph 40.3 mph N/A   Unknown
7:30 PM 48.2 °F - 37.4 °F 66% 29.86 in 6.2 mi North 28.8 mph 43.7 mph N/A   Unknown
8:00 PM 48.2 °F - 37.4 °F 66% 29.89 in 6.2 mi North 27.6 mph 40.3 mph N/A   Unknown
8:30 PM 48.2 °F - 37.4 °F 66% 29.89 in 6.2 mi North 27.6 mph 43.7 mph N/A   Unknown
9:00 PM 48.2 °F - 37.4 °F 66% 29.89 in 6.2 mi North 27.6 mph 39.1 mph N/A   Unknown
9:30 PM 48.2 °F - 37.4 °F 66% 29.92 in 6.2 mi North 28.8 mph 42.6 mph N/A   Unknown
10:00 PM 46.4 °F 37.4 °F 37.4 °F 71% 29.92 in 6.2 mi North 28.8 mph 44.9 mph N/A   Unknown
10:30 PM 46.4 °F 37.4 °F 37.4 °F 71% 29.92 in 6.2 mi North 28.8 mph 40.3 mph N/A   Unknown
11:00 PM 46.4 °F 37.4 °F 35.6 °F 66% 29.92 in 6.2 mi North 28.8 mph - N/A   Unknown
11:30 PM 46.4 °F 37.5 °F 35.6 °F 66% 29.92 in 6.2 mi North 27.6 mph 43.7 mph N/A   Unknown